Weather History for KNCA - November, 2014

Change the Weather History Date:

Saturday, November 1, 2014

  Actual Average Record
Temperature  
Mean Temperature 50 °F -  
Max Temperature 55 °F 68 °F 82 °F (2010)
Min Temperature 45 °F 46 °F 34 °F (2008)
Degree Days  
Heating Degree Days 15    
Moisture  
Dew Point 44 °F    
Average Humidity 80    
Maximum Humidity 93    
Minimum Humidity 59    
Precipitation  
Precipitation 0.18 in - - ()
Sea Level Pressure  
Sea Level Pressure 29.69 in    
Wind  
Wind Speed 9 mph (North)    
Max Wind Speed 28 mph    
Max Gust Speed 37 mph    
Visibility 9 miles    
Events Rain , Thunderstorm    
Averages and records for this station are not official NWS values.
T = Trace of Precipitation, MM = Missing Value Source: NWS Daily Summary

Daily Weather History Graph

Daily Weather History Graph

Search for Another Location

Airport or City:

Trip Planner

Search our weather history database for the weather conditions in past years. The results will help you decide how hot, cold, wet, or windy it might be!

Date:

Astronomy

Nov. 01, 2014 Rise Set
Actual Time 7:30 AM EDT 6:15 PM EDT
Civil Twilight 7:04 AM EDT 6:41 PM EDT
Nautical Twilight 6:34 AM EDT 7:11 PM EDT
Astronomical Twilight 6:04 AM EDT 7:41 PM EDT
Moon 2:55 PM EDT (11/1) 1:38 AM EDT (11/1)
Length of Visible Light 11h 37m
Length of Day
10h 45m
Waxing Gibbous, 67% of the Moon is Illuminated
Nov 1
Waxing Gibbous
Nov 6
Full
Nov 14
Last Quarter
Nov 22
New
Nov 29
First Quarter

Hourly Weather History & Observations

Time (EDT) Temp. Windchill Dew Point Humidity Pressure Visibility Wind Dir Wind Speed Gust Speed Precip Events Conditions
12:56 AM 50.0 °F - 43.0 °F 77% 29.75 in 10.0 mi NE 3.5 mph - N/A   Clear
1:56 AM 46.0 °F 43.9 °F 43.0 °F 89% 29.74 in 10.0 mi NW 4.6 mph - N/A   Clear
2:56 AM 45.0 °F - 43.0 °F 93% 29.73 in 10.0 mi Calm Calm - N/A   Clear
3:56 AM 45.0 °F 43.5 °F 42.1 °F 90% 29.71 in 10.0 mi North 3.5 mph - N/A   Clear
4:56 AM 46.9 °F - 43.0 °F 86% 29.70 in 10.0 mi NNE 3.5 mph - N/A   Overcast
5:56 AM 48.0 °F - 44.1 °F 86% 29.69 in 10.0 mi North 5.8 mph - 0.00 in Rain Light Rain
6:56 AM 46.9 °F - 43.0 °F 86% 29.68 in 10.0 mi North 5.8 mph - 0.00 in   Mostly Cloudy
7:30 AM 46.9 °F - 43.0 °F 86% 29.67 in 10.0 mi NNE 6.9 mph - N/A Thunderstorm Thunderstorm
7:56 AM 48.0 °F - 43.0 °F 83% 29.71 in 8.0 mi Calm Calm - 0.00 in Rain , Thunderstorm Light Thunderstorms and Rain
8:00 AM 48.0 °F - 43.0 °F 83% 29.71 in 5.0 mi Calm Calm - 0.01 in Rain Light Rain
8:10 AM 48.0 °F - 43.0 °F 83% 29.71 in 1.8 mi Calm Calm - 0.04 in Rain Rain
8:18 AM 46.9 °F - 43.0 °F 86% 29.71 in 3.0 mi North 5.8 mph - 0.06 in Rain Rain
8:56 AM 46.9 °F - 44.1 °F 90% 29.69 in 2.5 mi NE 20.7 mph - 0.14 in Rain Rain
9:08 AM 46.9 °F - 44.1 °F 90% 29.69 in 6.0 mi NNW 8.1 mph - 0.00 in Rain Light Rain
9:56 AM 50.0 °F - 43.0 °F 77% 29.69 in 10.0 mi North 11.5 mph - 0.00 in   Partly Cloudy
10:56 AM 53.1 °F - 42.1 °F 66% 29.66 in 10.0 mi NNE 17.3 mph - N/A   Clear
11:56 AM 55.0 °F - 42.1 °F 62% 29.61 in 10.0 mi North 15.0 mph - N/A   Clear
12:56 PM 55.0 °F - 41.0 °F 59% 29.62 in 10.0 mi North 11.5 mph - N/A   Mostly Cloudy
1:56 PM 55.9 °F - 43.0 °F 62% 29.59 in 10.0 mi North 11.5 mph - 0.00 in   Overcast
2:56 PM 55.0 °F - 46.0 °F 72% 29.57 in 10.0 mi North 17.3 mph 23.0 mph N/A   Overcast
3:13 PM 54.0 °F - 46.0 °F 75% 29.57 in 10.0 mi North 18.4 mph - N/A   Overcast
3:56 PM 53.1 °F - 46.9 °F 80% 29.60 in 10.0 mi North 18.4 mph 25.3 mph 0.01 in Rain Light Rain
4:56 PM 51.1 °F - 46.9 °F 86% 29.63 in 7.0 mi North 15.0 mph 25.3 mph 0.03 in Rain Light Rain
5:17 PM 51.1 °F - 46.0 °F 83% 29.63 in 10.0 mi North 18.4 mph 26.5 mph 0.00 in   Overcast
5:56 PM 50.0 °F - 46.9 °F 89% 29.66 in 8.0 mi North 15.0 mph 26.5 mph 0.00 in   Overcast
6:15 PM 50.0 °F - 46.0 °F 86% 29.66 in 10.0 mi North 19.6 mph 27.6 mph N/A   Overcast
6:56 PM 50.0 °F - 46.0 °F 86% 29.69 in 6.0 mi North 19.6 mph 32.2 mph 0.00 in Rain Light Rain
7:56 PM 50.0 °F - 44.1 °F 80% 29.72 in 10.0 mi NNW 23.0 mph 32.2 mph 0.00 in   Overcast
8:56 PM 50.0 °F - 43.0 °F 77% 29.76 in 10.0 mi NNW 27.6 mph 34.5 mph N/A   Overcast
9:46 PM 48.9 °F - 43.0 °F 80% 29.79 in 10.0 mi NNW 24.2 mph 31.1 mph 0.00 in   Overcast
9:56 PM 48.9 °F - 42.1 °F 77% 29.81 in 10.0 mi NW 24.2 mph 36.8 mph 0.00 in   Overcast
10:56 PM 48.9 °F - 41.0 °F 74% 29.83 in 10.0 mi NW 16.1 mph 27.6 mph 0.00 in   Overcast
11:56 PM 48.9 °F - 37.9 °F 66% 29.84 in 10.0 mi NW 20.7 mph 31.1 mph N/A   Clear